Location: Meanaryar
(48.4161°N, 4.7315°W)
Time: 11:00:24
(UTC+00:00)

ATLAS 2AS CENTAUR R/B - Pass Details

Date: 18 September 2020
Orbit: 939 x 1273 km, 63.7° (Epoch: 19 October)

Event Time Altitude Azimuth Distance (km) Brightness Sun altitude
Rises 21:00:39 0° 197° (SSW) 4,183 5.6 -25.2°
Reaches altitude 10° 21:03:29 10° 192° (SSW) 3,240 5.0 -25.5°
Enters shadow 21:04:48 16° 189° (S) 2,824 4.6 -25.7°
Exits shadow 21:11:56 50° 99° (E) 1,584 3.2 -26.7°
Drops below altitude 10° 21:18:38 10° 47° (NE) 3,237 5.1 -27.5°
Sets 21:21:27 0° 43° (NE) 4,180 5.8 -27.9°
